NKS1549 KLAX-KLAS

Flight info

Callsign NKS1549
Flight time N/A
Altitude 29000
Route ORCKA5 MISEN RNDRZ4
Aircraft A320/M-SDE3FGHIRWY/LB1

Departure

Time N/A
Airport Los Angeles International Airport (KLAX)

Arrival

Time 2026-05-08 00:49
Airport Harry Reid International Airport (KLAS)
Time Latitude Longitude Altitude Speed Heading
2026-05-08 00:49 36.08256 -115.15349 2107 ft 0 kts 64°
2026-05-08 01:06 36.08253 -115.15356 2125 ft 4 kts 65°
2026-05-08 01:06 36.08242 -115.15386 2106 ft 4 kts 70°
2026-05-08 01:06 36.08236 -115.15417 2106 ft 4 kts 97°
2026-05-08 01:07 36.08245 -115.15444 2106 ft 4 kts 146°
2026-05-08 01:07 36.08254 -115.15451 2107 ft 1 kts 155°
2026-05-08 01:12 36.08245 -115.15445 2108 ft 2 kts 155°
2026-05-08 01:12 36.08224 -115.15434 2108 ft 4 kts 155°
2026-05-08 01:12 36.08192 -115.15415 2106 ft 6 kts 155°
2026-05-08 01:13 36.08166 -115.15400 2107 ft 6 kts 155°
2026-05-08 01:13 36.08162 -115.15398 2107 ft 0 kts 155°
2026-05-08 01:14 36.08161 -115.15398 2107 ft 0 kts 155°
2026-05-08 01:14 36.08160 -115.15397 2107 ft 1 kts 155°
2026-05-08 01:14 36.08138 -115.15379 2108 ft 6 kts 141°
2026-05-08 01:14 36.08113 -115.15326 2108 ft 8 kts 109°
2026-05-08 01:15 36.08102 -115.15276 2108 ft 10 kts 104°
2026-05-08 01:15 36.08046 -115.15202 2111 ft 8 kts 168°
2026-05-08 01:15 36.08011 -115.15199 2112 ft 7 kts 178°
2026-05-08 01:15 36.07941 -115.15200 2116 ft 8 kts 182°
2026-05-08 01:16 36.07906 -115.15201 2117 ft 7 kts 180°
2026-05-08 01:16 36.07859 -115.15198 2120 ft 6 kts 168°
2026-05-08 01:16 36.07812 -115.15154 2121 ft 12 kts 120°
2026-05-08 01:16 36.07798 -115.15027 2118 ft 17 kts 92°
2026-05-08 01:17 36.07788 -115.14857 2112 ft 23 kts 95°
2026-05-08 01:17 36.07767 -115.14560 2102 ft 29 kts 94°
2026-05-08 01:17 36.07756 -115.14386 2097 ft 31 kts 94°
2026-05-08 01:17 36.07752 -115.14101 2089 ft 35 kts 90°
2026-05-08 01:18 36.07754 -115.13786 2083 ft 37 kts 90°
2026-05-08 01:18 36.07754 -115.13457 2076 ft 40 kts 90°
2026-05-08 01:18 36.07756 -115.13102 2064 ft 43 kts 90°
2026-05-08 01:18 36.07755 -115.12750 2054 ft 32 kts 90°
2026-05-08 01:19 36.07755 -115.12461 2049 ft 35 kts 90°
2026-05-08 01:19 36.07755 -115.12263 2046 ft 25 kts 92°
2026-05-08 01:19 36.07747 -115.12149 2044 ft 0 kts 119°
2026-05-08 01:19 36.07746 -115.12148 2044 ft 0 kts 120°
2026-05-08 01:20 36.07745 -115.12146 2044 ft 1 kts 120°
2026-05-08 01:20 36.07739 -115.12137 2050 ft 1 kts 130°
2026-05-08 01:20 36.07734 -115.12132 2049 ft 0 kts 144°
2026-05-08 01:20 36.07733 -115.12132 2048 ft 0 kts 149°
2026-05-08 01:21 36.07723 -115.12128 2045 ft 3 kts 165°
2026-05-08 01:21 36.07709 -115.12126 2046 ft 2 kts 172°
2026-05-08 01:21 36.07685 -115.12124 2051 ft 4 kts 179°
2026-05-08 01:21 36.07656 -115.12151 2052 ft 10 kts 250°
2026-05-08 01:22 36.07643 -115.12290 2049 ft 26 kts 270°
2026-05-08 01:22 36.07635 -115.12803 2058 ft 92 kts 272°
2026-05-08 01:22 36.07642 -115.13817 2084 ft 141 kts 270°
2026-05-08 01:22 36.07664 -115.15178 2145 ft 177 kts 274°
2026-05-08 01:23 36.07676 -115.16718 2691 ft 183 kts 271°
2026-05-08 01:23 36.07674 -115.18289 3400 ft 182 kts 269°
2026-05-08 01:23 36.07678 -115.19842 4046 ft 179 kts 269°
2026-05-08 01:23 36.07681 -115.21377 4595 ft 179 kts 267°
2026-05-08 01:24 36.07315 -115.22892 4853 ft 197 kts 234°
2026-05-08 01:24 36.06325 -115.24226 4970 ft 227 kts 229°
2026-05-08 01:24 36.05255 -115.25836 5142 ft 257 kts 232°
2026-05-08 01:24 36.04142 -115.27650 5367 ft 270 kts 233°
2026-05-08 01:25 36.03011 -115.29518 5634 ft 273 kts 233°
2026-05-08 01:25 36.01865 -115.31396 5921 ft 274 kts 233°
2026-05-08 01:25 36.00708 -115.33268 6188 ft 274 kts 233°
2026-05-08 01:25 35.99544 -115.35127 6452 ft 272 kts 234°
2026-05-08 01:26 35.98377 -115.36980 6859 ft 276 kts 234°
2026-05-08 01:26 35.97195 -115.38847 7716 ft 277 kts 234°
2026-05-08 01:26 35.96001 -115.40726 8565 ft 279 kts 234°
2026-05-08 01:26 35.94788 -115.42629 9359 ft 285 kts 234°
2026-05-08 01:27 35.93551 -115.44569 10129 ft 291 kts 234°
2026-05-08 01:27 35.92254 -115.46612 10402 ft 314 kts 234°
2026-05-08 01:27 35.90856 -115.48817 10597 ft 338 kts 234°
2026-05-08 01:27 35.89379 -115.51138 11080 ft 349 kts 234°
2026-05-08 01:28 35.87862 -115.53516 11711 ft 356 kts 234°
2026-05-08 01:28 35.86317 -115.55931 12347 ft 362 kts 234°
2026-05-08 01:28 35.85010 -115.57969 12881 ft 367 kts 234°